STARLINK-35874, 66962

Orbit data source: Space-Track

STARLINK-35874, 66962 is a payload satellite owned by SpaceX/Seattle (US) in LEO that was launched on Mon, 08 Dec 2025 UTC via an FALCON 9 launch vehicle from the Air Force Eastern Test Range (AFETR). Payload-class satellites include a variety of spacecraft equipped with specific instruments for various scientific and technological missions. These include communications satellites like Starlink; space stations such as the ISS; scientific satellites like the Hubble; Earth observation satellites from companies like Planet Labs, Umbra, and HawkEye 360; GPS; miniature CubeSats for education and research; and military/defense satellites.

Loading next visibility...
Identifier
66962, 2025-288D
Orbit
LEO
Country
Flag of USUS
Related business
Manufacturer
SpaceX/Seattle
Mission
Operational Commercial Communications
Bus & Motor
STARLINK V2MO, Unknown motor
Mass
575 kg wet, ~530 kg dry
Launch date (UTC)
2025-12-08 (7 months ago)
Launch vehicle
FALCON 9
Launch site
Air Force Eastern Test Range (AFETR)
Object type
Payload
Rocket body
Debris
Shape & HBR
Box + 2 Pan, 17.7 m
Radar Cross Section
36.964 m², Large (>1 m²)

Expand to show TLE details & history
Last TLE update: 10 hours ago

TLE from 10 hours ago
0 STARLINK-35874
1 66962U 25288D   26177.56618963  .00017660  00000-0  64945-3 0  9992
2 66962  42.9977 129.0092 0001402 265.7588  94.3103 15.27594602 31937
Epoch: 2026-06-26T13:35Z
TLE epoch observation values (Epoch: 2026-06-26T13:35:18.784Z)
Latitude
-0.00003°
Longitude
10.48805°
Altitude
482.853 km
Speed
7.626 km/s
True Right ascension
08h 36m 02s
True Declination
0° 00' 00"
Sunlit
Object was in daylight at epoch
Visualization orbit readout
Latitude
Unknown
Longitude
Unknown
Altitude
Unknown
Speed
Unknown
Apparent Right ascension
Unknown
Apparent Declination
Unknown
Sunlit
N/A
Visualization observer readout
Local Sidereal Time
10:40:18
Azimuth
Unknown
Elevation
Unknown
Doppler factor
Unknown
Orbital elements
Apogee altitude
485.913 km
Perigee altitude
483.989 km
Semi-major axis
6,863.088 km
Eccentricity
0.00014
Inclination
42.9977°
RAAN
129.0092°
Arg. of periapsis
265.7588°
True anomaly
94.32632°
Mean anomaly
94.3103°
Eccentric anomaly
94.31831°
Mean motion
3.81737 °/min
Orbital period
94.31 mins
BSTAR
0.00064945
Loading maneuver chart data...
Computing Atmospheric mass density...
Loading historical data...
Loading historical data...
Loading historical data...
Loading historical data...
Loading historical data...
Loading historical data...
Loading historical data...

Documentation

Showing up to 5 results
|